Vicksburg, LA

9:23 AM CDT on June 24, 2017 (GMT -0500)
Vicksburg Tallulah Regional

Weather History for KTVR - November, 2013

Change the Weather History Date:

Saturday, November 30, 2013

  Actual Average Record
Temperature  
Mean Temperature 44 °F 51 °F  
Max Temperature 63 °F 62 °F 80 °F (1970)
Min Temperature 25 °F 40 °F 17 °F (1956)
Degree Days  
Heating Degree Days 21 14  
Month to date heating degree days 429 299  
Since 1 July heating degree days 530 402  
Cooling Degree Days 0 0  
Month to date cooling degree days 16 16  
Year to date cooling degree days 2264 2225  
Moisture  
Dew Point 30 °F    
Average Humidity 63    
Maximum Humidity 100    
Minimum Humidity 25    
Precipitation  
Precipitation 0.00 in 0.23 in 1.78 in (1977)
Month to date precipitation 6.23 5.00  
Year to date precipitation 63.58 49.13  
Sea Level Pressure  
Sea Level Pressure 30.40 in    
Wind  
Wind Speed 2 mph (SE)    
Max Wind Speed 8 mph    
Max Gust Speed 10 mph    
Visibility 8 miles    
Events      
T = Trace of Precipitation, MM = Missing Value Source: NWS Daily Summary

Daily Weather History Graph

Daily Weather History Graph

Search for Another Location

Airport or City:

Trip Planner

Search our weather history database for the weather conditions in past years. The results will help you decide how hot, cold, wet, or windy it might be!

Date:

Astronomy

Nov. 30, 2013 Rise Set
Actual Time 6:46 AM CST 4:58 PM CST
Civil Twilight 6:20 AM CST 5:25 PM CST
Nautical Twilight 5:49 AM CST 5:55 PM CST
Astronomical Twilight 5:20 AM CST 6:25 PM CST
Moon 4:05 AM CST (11/30) 3:16 PM CST (11/30)
Length of Visible Light 11h 05m
Length of Day
10h 11m
Waning Crescent, 7% of the Moon is Illuminated
Nov 30
Waning Crescent
Dec 2
New
Dec 9
First Quarter
Dec 17
Full
Dec 25
Last Quarter

Hourly Weather History & Observations

Time (CST) Temp. Windchill Dew Point Humidity Pressure Visibility Wind Dir Wind Speed Gust Speed Precip Events Conditions
12:08 AM 28.9 °F - 28.0 °F 96% 30.43 in 2.0 mi Calm Calm - N/A   Clear
12:16 AM 30.0 °F - 28.0 °F 92% 30.43 in 10.0 mi Calm Calm - N/A   Clear
12:53 AM 28.9 °F - 28.0 °F 96% 30.44 in 10.0 mi Calm Calm - N/A   Clear
1:53 AM 28.9 °F - 28.0 °F 96% 30.45 in 9.0 mi Calm Calm - N/A   Clear
2:53 AM 27.0 °F - 26.1 °F 96% 30.45 in 8.0 mi Calm Calm - N/A   Clear
3:48 AM 28.4 °F - 24.8 °F 86% 30.42 in 1.8 mi Calm Calm - N/A   Clear
3:53 AM 28.0 °F - 25.0 °F 88% 30.45 in 1.2 mi Calm Calm - N/A   Clear
4:01 AM 27.0 °F - 25.0 °F 92% 30.43 in 3.0 mi Calm Calm - N/A   Clear
4:53 AM 26.1 °F - 25.0 °F 96% 30.45 in 10.0 mi Calm Calm - N/A   Clear
5:53 AM 27.0 °F 23.0 °F 25.0 °F 92% 30.47 in 7.0 mi SE 3.5 mph - N/A   Clear
6:53 AM 25.0 °F - 23.0 °F 92% 30.48 in 10.0 mi Calm Calm - N/A   Unknown
7:53 AM 34.0 °F - 32.0 °F 92% 30.49 in 10.0 mi Calm Calm - N/A   Clear
8:53 AM 42.1 °F 39.2 °F 35.1 °F 76% 30.50 in 10.0 mi SE 4.6 mph - N/A   Clear
9:53 AM 51.1 °F - 34.0 °F 52% 30.50 in 10.0 mi Variable 3.5 mph - N/A   Clear
10:53 AM 55.0 °F - 30.0 °F 38% 30.47 in 10.0 mi South 4.6 mph - N/A   Clear
11:53 AM 57.9 °F - 30.9 °F 36% 30.43 in 10.0 mi SE 5.8 mph - N/A   Clear
12:53 PM 60.1 °F - 28.0 °F 30% 30.39 in 10.0 mi South 4.6 mph - N/A   Clear
1:53 PM 62.1 °F - 26.1 °F 25% 30.35 in 10.0 mi Variable 3.5 mph - N/A   Clear
2:53 PM 62.1 °F - 27.0 °F 26% 30.33 in 10.0 mi Calm Calm - N/A   Clear
3:53 PM 62.1 °F - 26.1 °F 25% 30.32 in 5.0 mi Calm Calm - N/A   Haze
5:53 PM 39.9 °F - 33.1 °F 77% 30.30 in 10.0 mi Calm Calm - N/A   Clear
6:53 PM 41.0 °F 39.0 °F 36.0 °F 82% 30.30 in 10.0 mi East 3.5 mph - N/A   Clear
7:53 PM 39.9 °F - 37.9 °F 93% 30.31 in 10.0 mi Calm Calm - N/A   Clear
8:53 PM 36.0 °F - 35.1 °F 97% 30.30 in 10.0 mi Calm Calm - N/A   Clear
9:53 PM 36.0 °F - 34.0 °F 93% 30.30 in 10.0 mi Calm Calm - N/A   Clear
10:53 PM 39.0 °F 36.8 °F 36.0 °F 89% 30.29 in 10.0 mi SE 3.5 mph - N/A   Clear
11:53 PM 36.0 °F 33.3 °F 34.0 °F 93% 30.28 in 10.0 mi SE 3.5 mph - N/A   Clear